Flag for U.S.A. Weather past 2 weeks in Abilene, Texas, U.S.A.

Now
87 °F

Sunny.


Feels Like: 91 °F
Forecast: 72 / 94 °F
Wind: 8 mph from Northwest

Location: Abilene Regional Airport

Current Time: Aug 30, 2014 at 11:28:46 AM

Latest Report: Aug 30, 2014 at 10:52 AM


Visibility: 10 mi

Pressure: 29.93 "Hg

Humidity: 55%

Dew point: 69 °F

Location of AbileneLocation

Historic Weather in Abilene — Graph

°F

Abilene temperature yesterday

Maximum temperature yesterday: 88 °F (at 4:52 PM)
Minimum temperature yesterday: 69 °F (at 5:52 AM)
Average temperature yesterday: 77 °F

Past Weeks' High & Low Weather Summary

 TemperatureHumidityPressure
High100 °F (Aug 15, 3:52 PM)97% (Aug 29, 1:59 AM)30.01 "Hg (Aug 29, 1:59 AM)
Low69 °F (Aug 29, 5:52 AM)18% (Aug 15, 6:52 PM)29.74 "Hg (Aug 28, 6:52 PM)
Average85 °F51%29.88 "Hg
* Reported Aug 15 9:52 AM — Aug 30 9:52 AM, Abilene, Weather by CustomWeather, © 2014

Note: Actual official high and low records may vary slightly from our data, if they occured in-between our weather recording intervals... More about our weather records

Advertising

Abilene weather history for previous 24 hours

 ConditionsComfort  
Time TempWeatherWind HumidityBarometerVisibility
9:52 AM
Aug 30
81 °FSunny.7 mph69%29.93 "Hg10 mi
8:52 AM77 °FSunny.9 mph79%29.93 "Hg10 mi
7:52 AM73 °FClear.5 mph88%29.92 "Hg10 mi
6:52 AM72 °FClear.6 mph91%29.91 "Hg10 mi
5:52 AM73 °FClear.7 mph88%29.90 "Hg10 mi
4:52 AM74 °FClear.10 mph85%29.89 "Hg10 mi
3:52 AM75 °FClear.10 mph82%29.89 "Hg10 mi
2:52 AM73 °FClear.5 mph90%29.88 "Hg10 mi
1:52 AM74 °FClear.6 mph88%29.88 "Hg10 mi
12:52 AM75 °FClear.8 mph82%29.88 "Hg10 mi
11:52 PM
Aug 29
77 °FLight rain. Mostly cloudy.6 mph77%29.91 "Hg10 mi
10:52 PM79 °FMostly cloudy.No wind65%29.90 "Hg10 mi
9:52 PM79 °FPartly cloudy.3 mph62%29.88 "Hg10 mi
8:52 PM80 °FPartly sunny.6 mph62%29.86 "Hg10 mi
7:52 PM81 °FPassing clouds.7 mph62%29.84 "Hg10 mi
6:52 PM84 °FScattered clouds.7 mph57%29.82 "Hg10 mi
5:52 PM87 °FPassing clouds.8 mph50%29.82 "Hg10 mi
4:52 PM88 °FSunny.16 mph50%29.81 "Hg10 mi
3:52 PM86 °FMostly cloudy.15 mph53%29.83 "Hg10 mi
1:52 PM87 °FPartly sunny.8 mph55%29.88 "Hg10 mi
12:59 PM83 °FPartly sunny.5 mph63%29.97 "Hg10 mi
11:59 AM83 °FPassing clouds.6 mph65%29.98 "Hg10 mi
Weather by CustomWeather, © 2014

See weather overviewHow to use our weather pages